CAPE
0 0 0 0 0 0 0 0 0 6 0 0 0 0 3 8 144 213 358 758 1992 1626 862 589 222 40 105 44 11 0 34 12 37 27 35 54 74 8 132 14 51 0 0 0
1 0 0 0 0 0 0 0 31 2 1 0 0 5 52 117 341 360 316 1007 1711 985 415 101 106 111 62 17 1 13 0 6 3 15 31 49 72 61 87 150 8 5 1 0
0 0 0 0 0 0 25 0 0 0 0 0 25 28 141 136 365 593 709 748 1344 980 132 116 86 60 7 20 41 54 25 18 15 7 12 74 182 200 178 179 64 30 7 13
0 0 0 0 2 0 58 0 0 0 0 1 2 7 148 189 440 734 838 859 959 580 126 155 141 54 39 49 66 71 45 8 29 88 165 91 176 332 113 153 306 19 69 70
1 0 0 8 0 0 2 0 0 0 0 11 63 56 265 157 665 623 801 672 336 48 0 6 4 4 3 0 0 1 1 0 1 2 0 0 0 13 78 77 89 116 101 48
0 0 0 0 0 0 0 0 0 0 11 73 119 86 94 208 197 996 234 151 7 7 4 3 1 0 0 0 0 0 0 0 3 2 3 33 104 60 23 20 11 5 19 29
12 14 2 0 0 7 4 3 0 31 15 65 69 47 370 405 772 1006 212 7 8 2 0 0 0 0 0 0 0 0 8 15 4 0 2 7 13 18 12 25 27 36 36 83
93 89 30 6 0 0 0 0 32 18 0 4 31 92 204 699 261 223 7 4 0 0 0 0 0 0 4 14 10 1 0 0 0 0 6 15 21 17 18 90 31 40 47 82
68 94 35 1 0 0 0 9 0 1 106 131 53 323 496 340 138 56 57 0 0 0 0 0 8 4 0 0 4 0 0 12 15 13 17 31 46 68 69 138 129 76 120 101
83 40 25 6 0 10 4 2 6 80 44 39 97 144 219 114 112 321 16 2 0 0 1 0 2 9 0 3 7 5 11 8 10 27 47 46 87 104 150 170 98 175 145 135
7 12 1 0 67 1 0 31 34 29 62 86 82 133 66 126 213 514 0 0 4 2 2 5 1 0 0 0 6 17 26 17 28 42 61 98 104 120 65 98 117 126 168 152
16 0 22 1 19 0 0 18 32 85 72 75 69 165 95 94 144 264 5 3 4 0 0 0 0 0 15 12 7 16 15 11 24 38 89 112 96 109 136 143 129 155 170 189
51 10 45 18 142 88 132 81 43 56 61 108 137 291 79 17 54 45 7 0 0 0 1 0 12 24 8 17 26 24 16 27 42 66 77 153 144 146 139 163 158 166 163 143
54 99 137 107 125 49 60 50 76 58 83 123 128 281 194 28 13 9 18 40 4 0 42 36 15 26 28 13 23 31 56 65 71 130 98 167 189 199 218 170 168 152 143 147
144 193 37 9 47 30 73 93 82 63 76 153 158 146 200 15 19 20 26 75 33 32 8 8 22 20 7 16 34 29 62 74 120 138 150 218 284 272 273 189 181 168 149 142
71 93 80 12 31 56 106 100 75 57 78 146 105 179 25 47 6 17 16 26 34 4 10 26 10 11 12 17 50 69 87 69 84 108 137 318 272 280 201 199 176 155 131 110
0 5 45 30 43 103 145 241 148 123 173 45 185 8 16 5 18 25 35 47 20 19 29 5 6 25 42 35 61 74 85 98 109 129 119 125 144 144 175 102 64 70 55 82
78 221 266 244 162 143 223 178 187 201 43 5 57 30 26 33 35 53 3 11 13 16 5 12 30 35 39 55 69 87 79 73 68 87 80 87 106 115 70 26 34 29 95 77
161 209 268 208 317 220 173 203 104 160 151 64 51 47 41 22 14 33 10 11 12 9 19 35 28 51 85 60 76 50 57 71 56 66 69 69 66 35 47 65 77 50 51 31
181 315 274 339 227 141 258 188 125 141 72 19 27 38 29 0 0 15 9 1 6 18 30 44 31 56 74 54 86 56 68 68 77 60 67 61 57 55 5 67 29 9 4 11
313 218 254 151 201 224 171 116 44 181 210 52 23 21 4 2 9 14 16 7 25 16 65 30 46 72 38 34 70 58 75 86 83 76 57 38 38 34 25 15 15 8 17 22
129 172 245 162 164 206 88 126 138 194 89 41 29 2 0 6 11 10 8 32 22 24 44 17 37 27 51 62 65 55 52 67 53 54 54 43 19 10 16 23 23 22 14 15
188 168 161 173 238 311 160 269 152 133 76 4 2 0 1 7 6 10 36 20 35 45 24 37 53 40 51 54 69 64 45 32 49 54 39 17 18 19 21 17 15 14 14 21
180 108 81 92 191 241 178 95 51 8 3 0 0 0 2 5 17 22 16 51 36 28 34 48 39 50 34 34 30 26 31 40 22 19 22 7 20 14 28 19 19 26 28 41
74 91 55 188 225 167 152 81 7 3 0 0 0 1 1 15 23 20 48 27 27 48 44 23 11 12 22 37 30 13 21 16 11 11 18 18 12 25 31 28 6 17 6 1
40 164 153 163 151 208 236 44 14 17 0 0 5 2 11 12 13 25 31 23 21 46 48 20 3 3 7 9 9 8 13 19 12 9 11 11 15 28 29 25 7 0 0 0
CIN
-0 -0 -0 -0 -0 -0 -0 -0 -0 -0 -0 -0 -0 -0 -0 -3 -11 -11 -15 -0 -94 -135 -214 -243 -339 -343 -214 -254 -67 -0 -101 -51 -80 -64 -87 -71 -50 -90 -23 -48 -30 -0 -0 -0
-0 -0 -0 -0 -0 -0 -0 -0 -0 -0 -0 -0 -0 -0 -0 -13 -11 -36 -22 -0 -43 -149 -226 -316 -271 -245 -253 -0 -6 -11 -0 -65 -102 -74 -77 -78 -7 -16 -21 -1 -34 -70 -0 -0
-0 -0 -0 -0 -0 -0 -0 -0 -0 -0 -0 -0 -0 -0 -1 -19 -14 -13 -31 -29 -2 -74 -274 -245 -234 -215 -0 -0 -58 -50 -20 -51 -63 -125 -102 -17 -0 -0 -4 -0 -0 -5 -0 -0
-0 -0 -0 -0 -0 -0 -0 -0 -0 -0 -0 -0 -0 -0 -0 -0 -0 -4 -6 -2 -0 -60 -168 -131 -115 -132 -159 -15 -10 -63 -15 -60 -44 -12 -10 -3 -0 -0 -6 -13 -3 -0 -0 -0
-11 -0 -0 -0 -0 -0 -0 -0 -0 -0 -0 -0 -0 -0 -12 -0 -3 -2 -45 -78 -89 -160 -0 -0 -0 -0 -0 -0 -0 -0 -0 -0 -0 -5 -0 -0 -0 -17 -0 -0 -2 -0 -0 -0
-0 -0 -0 -0 -0 -0 -0 -0 -0 -0 -0 -0 -0 -0 -0 -21 -0 -24 -204 -171 -0 -0 -0 -0 -0 -0 -0 -0 -0 -0 -0 -0 -2 -3 -4 -6 -0 -1 -4 -0 -0 -0 -0 -0
-0 -0 -2 -0 -0 -0 -0 -0 -0 -0 -0 -0 -1 -3 -1 -0 -4 -31 -204 -0 -0 -0 -0 -0 -0 -0 -0 -0 -0 -0 -0 -0 -0 -0 -0 -3 -0 -0 -0 -0 -0 -1 -0 -2
-0 -0 -11 -1 -0 -0 -0 -0 -0 -0 -0 -0 -2 -1 -85 -1 -64 -238 -39 -0 -0 -0 -0 -0 -0 -0 -18 -9 -3 -0 -0 -0 -0 -0 -0 -0 -0 -0 -0 -1 -0 -0 -0 -1
-0 -0 -0 -1 -0 -0 -0 -0 -0 -0 -0 -0 -5 -7 -7 -18 -7 -103 -242 -0 -0 -0 -0 -0 -1 -0 -0 -0 -0 -0 -0 -0 -0 -0 -0 -0 -0 -0 -0 -1 -1 -7 -0 -4
-0 -0 -0 -0 -0 -0 -0 -0 -0 -0 -0 -0 -0 -0 -3 -11 -5 -1 -2 -0 -0 -0 -0 -0 -0 -0 -0 -0 -0 -0 -0 -0 -8 -0 -0 -1 -1 -1 -1 -3 -0 -1 -0 -0
-6 -2 -0 -0 -0 -0 -0 -0 -0 -1 -0 -0 -0 -3 -29 -54 -40 -1 -0 -0 -0 -1 -0 -4 -1 -0 -0 -0 -0 -0 -0 -0 -0 -0 -0 -3 -1 -0 -0 -0 -0 -0 -0 -0
-2 -0 -0 -0 -1 -0 -0 -0 -0 -0 -0 -0 -0 -0 -18 -35 -22 -0 -3 -0 -0 -0 -0 -0 -0 -0 -0 -0 -0 -0 -0 -3 -1 -1 -1 -3 -0 -0 -0 -0 -0 -0 -0 -0
-2 -0 -0 -0 -1 -4 -9 -0 -0 -0 -3 -0 -0 -3 -62 -0 -82 -34 -0 -1 -0 -0 -12 -0 -0 -0 -0 -0 -0 -0 -0 -0 -0 -0 -0 -2 -0 -0 -0 -0 -0 -0 -0 -0
-4 -0 -0 -0 -0 -0 -0 -0 -0 -0 -1 -0 -0 -0 -30 -6 -7 -4 -10 -0 -33 -15 -2 -0 -0 -0 -0 -0 -0 -0 -0 -0 -0 -0 -3 -0 -0 -0 -0 -0 -0 -0 -0 -0
-0 -0 -0 -0 -0 -0 -0 -0 -0 -1 -0 -0 -0 -5 -0 -7 -3 -1 -2 -0 -2 -0 -2 -4 -0 -0 -0 -0 -0 -1 -0 -0 -0 -0 -0 -0 -0 -4 -7 -0 -0 -0 -0 -0
-0 -0 -0 -6 -2 -0 -1 -1 -1 -0 -0 -0 -0 -0 -39 -0 -17 -8 -11 -2 -0 -13 -1 -0 -0 -0 -0 -2 -0 -0 -0 -0 -0 -0 -0 -0 -0 -5 -0 -0 -0 -0 -0 -0
-0 -0 -0 -1 -1 -0 -0 -0 -3 -0 -13 -28 -0 -1 -0 -5 -0 -1 -0 -0 -0 -0 -0 -0 -2 -0 -0 -0 -0 -0 -0 -0 -0 -0 -0 -0 -4 -0 -0 -6 -5 -0 -4 -0
-0 -0 -0 -0 -0 -0 -0 -0 -0 -2 -20 -20 -1 -0 -0 -0 -0 -1 -12 -0 -0 -0 -0 -0 -0 -0 -0 -0 -0 -0 -0 -0 -0 -0 -0 -0 -0 -0 -0 -0 -0 -0 -0 -0
-0 -0 -0 -0 -0 -0 -0 -0 -0 -0 -0 -0 -0 -0 -0 -0 -0 -0 -0 -0 -0 -0 -0 -0 -1 -2 -1 -0 -1 -0 -2 -0 -0 -0 -0 -0 -0 -0 -0 -0 -0 -0 -0 -0
-0 -0 -0 -0 -0 -0 -0 -0 -1 -0 -0 -0 -0 -0 -0 -0 -0 -0 -0 -4 -0 -0 -0 -0 -1 -2 -1 -0 -0 -0 -0 -0 -0 -0 -0 -0 -0 -0 -4 -0 -0 -1 -0 -0
-0 -0 -0 -2 -0 -0 -1 -0 -0 -0 -0 -0 -0 -0 -0 -0 -0 -0 -0 -0 -0 -1 -0 -1 -0 -0 -6 -0 -2 -0 -0 -0 -0 -0 -0 -0 -0 -0 -0 -3 -0 -0 -0 -0
-0 -0 -0 -1 -0 -0 -0 -0 -0 -0 -0 -1 -0 -0 -0 -0 -0 -0 -0 -0 -0 -0 -0 -0 -0 -0 -0 -0 -0 -0 -0 -0 -0 -0 -0 -0 -0 -0 -0 -0 -0 -0 -0 -0
-0 -0 -0 -0 -0 -0 -0 -0 -3 -0 -0 -0 -0 -0 -0 -0 -0 -0 -0 -1 -0 -0 -0 -0 -0 -0 -1 -0 -0 -0 -0 -0 -0 -0 -0 -0 -0 -0 -0 -0 -0 -0 -0 -0
-1 -0 -0 -0 -0 -0 -0 -2 -4 -1 -0 -0 -0 -0 -0 -0 -0 -0 -0 -1 -0 -0 -0 -0 -0 -0 -0 -0 -0 -0 -0 -0 -1 -0 -0 -0 -0 -0 -0 -0 -0 -1 -0 -0
-2 -0 -0 -0 -0 -0 -0 -0 -0 -0 -0 -0 -0 -0 -0 -0 -0 -0 -1 -0 -0 -1 -0 -0 -1 -0 -1 -0 -0 -0 -0 -0 -0 -0 -0 -0 -0 -0 -0 -0 -0 -0 -0 -0
-0 -2 -1 -0 -0 -0 -0 -0 -0 -0 -0 -0 -0 -0 -0 -0 -1 -0 -0 -0 -0 -2 -0 -0 -2 -0 -0 -0 -0 -0 -0 -0 -0 -0 -0 -0 -0 -0 -0 -0 -0 -0 -0 -0
Wind_Speed
10 14 9 15 8 9 6 7 6 8 8 10 16 9 2 4 6 9 8 2 19 21 18 15 14 12 12 11 12 11 9 7 4 2 2 2 2 4 4 2 9 5 6 6
13 10 6 4 5 6 6 8 9 8 3 8 14 10 8 3 8 11 11 10 16 14 14 12 13 12 10 11 12 10 7 4 3 2 2 2 3 6 6 10 6 4 4 6
9 12 2 8 3 9 5 7 11 14 15 17 13 15 14 11 10 11 14 11 19 12 11 8 10 10 11 11 10 8 6 4 4 2 1 3 6 7 8 8 4 2 5 8
7 5 6 9 5 10 7 11 13 15 15 14 18 12 14 14 14 13 15 12 14 14 9 9 10 9 10 12 11 7 6 7 6 6 5 6 5 8 5 7 5 4 6 7
11 6 5 2 11 9 14 12 15 19 20 16 13 8 14 9 18 16 16 18 15 17 16 14 12 11 10 10 7 6 7 8 6 7 5 3 5 7 8 5 5 5 10 9
8 1 5 9 7 5 11 16 20 23 18 13 14 5 4 12 3 17 16 14 12 13 12 12 11 9 9 7 4 3 4 1 3 4 4 7 8 8 9 9 9 9 7 7
4 10 6 4 12 13 18 16 12 7 9 9 5 6 14 13 14 19 17 12 11 11 10 9 8 7 4 3 5 4 4 3 5 7 8 10 9 9 11 9 8 8 7 3
6 2 6 8 10 12 21 10 9 12 13 14 18 7 1 16 16 20 17 13 11 9 6 6 4 6 6 3 4 10 12 12 8 9 9 8 7 7 7 5 6 8 7 6
9 4 2 5 8 9 10 11 15 11 19 14 7 16 12 17 11 12 15 13 11 9 8 7 5 8 7 7 6 7 7 9 10 10 8 8 6 6 7 6 5 6 6 5
5 11 8 4 7 10 5 7 9 6 10 10 12 8 8 11 11 16 13 14 12 9 7 7 6 10 9 9 9 11 10 11 11 9 6 7 5 4 5 5 7 8 8 9
7 7 11 15 2 10 12 9 8 9 8 10 11 7 11 11 13 14 14 12 11 10 8 13 12 10 9 8 10 12 12 12 9 8 8 7 5 6 7 8 9 10 11 10
8 7 10 17 7 4 8 4 6 8 11 11 11 4 11 12 14 15 14 11 11 13 10 10 8 6 9 13 12 11 11 10 8 8 7 8 6 9 11 10 10 10 10 11
9 6 10 11 7 5 5 12 10 9 8 14 13 5 9 9 12 13 11 13 8 8 8 7 6 11 11 10 12 11 9 9 7 9 9 5 8 9 9 10 10 8 8 9
3 7 12 12 15 14 11 11 11 8 9 14 10 8 12 15 14 13 9 5 7 4 6 7 11 13 13 12 8 9 7 10 12 10 10 9 9 8 8 7 10 9 11 12
3 11 15 16 17 15 16 12 9 11 16 11 12 15 11 12 11 6 7 9 5 9 11 11 13 11 9 7 8 8 8 10 11 11 9 9 11 8 7 8 10 10 10 10
8 11 14 17 17 17 11 11 9 9 11 14 10 7 9 12 8 7 6 6 15 11 11 12 11 10 9 6 11 12 11 10 11 11 13 12 9 5 9 8 9 9 10 10
10 11 12 15 17 13 9 7 6 10 11 11 10 6 12 9 7 4 11 13 10 11 13 11 6 8 10 12 10 10 10 9 10 11 13 12 13 13 11 9 9 9 9 10
9 9 10 10 11 10 7 8 10 7 6 5 10 8 8 9 13 14 12 11 13 13 8 6 9 14 11 11 10 8 8 8 11 10 11 10 11 10 9 9 10 11 11 11
4 9 6 3 6 3 4 5 5 5 5 6 9 9 12 14 7 11 9 12 10 5 7 11 10 8 6 10 12 12 8 12 11 10 10 12 10 11 10 10 12 11 10 9
7 7 5 7 5 3 3 3 1 8 3 9 10 11 13 13 9 13 13 9 5 8 10 7 7 8 7 10 10 11 12 13 12 9 10 9 10 13 11 12 11 10 7 5
1 4 5 2 4 6 3 7 5 5 4 7 9 12 10 9 8 10 7 3 7 8 7 8 9 8 10 11 9 11 11 12 11 10 11 11 11 10 10 7 6 8 7 7
5 4 4 5 3 2 7 2 6 4 4 8 9 9 9 7 8 5 5 9 9 9 8 11 10 11 12 12 10 12 12 11 9 7 10 11 9 7 7 7 6 8 6 5
1 6 5 5 4 4 6 8 5 6 9 8 8 7 6 6 6 5 11 6 9 7 10 12 13 12 8 10 13 14 16 15 13 13 13 9 10 8 9 7 8 5 7 6
4 3 5 3 2 5 6 7 7 8 8 7 7 6 5 7 5 10 5 7 7 11 11 12 12 14 14 13 13 12 13 13 12 11 11 9 8 7 7 6 5 6 7 6
4 6 5 7 5 6 5 8 7 7 6 7 8 6 6 6 9 4 8 8 10 10 9 10 11 11 12 13 13 12 11 11 9 8 8 8 6 7 6 10 9 8 9 6
3 7 5 2 6 6 7 7 5 6 6 5 6 6 5 7 4 6 7 9 9 10 11 11 10 9 10 10 9 9 8 8 7 7 7 6 4 4 4 4 6 7 5 6
Wind_Direction
217 240 12 35 2 346 352 319 306 30 55 297 303 299 271 353 12 16 359 47 61 70 66 71 85 99 98 103 117 114 100 54 52 57 16 340 343 347 308 323 280 354 318 328
230 75 53 8 335 305 299 300 22 309 199 272 283 282 213 104 56 46 25 46 88 84 87 90 99 98 109 126 131 118 114 127 104 91 147 150 308 298 321 300 287 291 302 323
5 73 102 279 201 317 199 356 349 321 314 287 290 260 150 134 92 80 77 46 92 86 93 111 123 134 121 135 134 130 87 44 39 37 10 297 296 285 258 250 232 315 307 295
42 73 285 256 92 329 324 15 325 309 305 304 315 298 189 148 133 96 80 67 64 86 107 111 126 112 87 52 33 37 1 2 2 326 337 335 297 297 326 303 290 303 289 282
80 31 333 303 26 330 351 321 292 292 285 279 303 229 138 177 79 87 74 60 61 61 60 58 56 56 53 58 49 45 28 12 357 3 2 359 303 266 277 321 319 286 282 282
75 11 13 5 296 243 292 308 310 275 256 248 120 301 316 130 112 101 87 74 69 67 68 64 56 50 50 50 68 140 173 90 279 271 277 271 294 313 306 315 307 289 324 299
257 171 119 308 328 346 352 312 314 323 335 318 106 284 53 66 63 99 98 87 73 73 73 80 89 87 86 330 291 263 340 341 332 342 332 325 315 312 292 300 308 337 297 18
346 122 340 19 350 336 298 340 296 334 313 313 279 357 328 76 62 89 93 94 89 91 114 117 162 187 184 212 353 5 3 349 333 334 330 318 319 306 302 21 340 302 315 311
329 312 146 77 338 315 344 312 341 285 259 263 326 100 58 47 99 97 106 108 105 112 105 116 87 53 31 360 14 351 337 334 337 340 317 318 335 320 323 304 300 299 293 308
20 300 315 341 286 196 278 317 340 321 319 308 312 2 44 18 23 120 114 108 119 135 120 83 66 28 357 353 358 359 343 342 326 328 346 320 291 272 269 270 285 286 297 294
344 302 308 308 12 348 316 316 4 310 279 320 306 25 49 20 23 79 95 94 96 76 52 28 14 4 346 333 341 346 342 332 354 348 340 303 312 302 312 318 311 319 313 299
53 305 296 309 37 292 289 302 354 323 316 321 289 323 53 30 44 65 81 87 79 45 18 5 346 317 327 3 345 326 6 350 326 308 281 280 335 337 321 322 325 324 316 315
13 321 312 310 162 358 301 330 318 327 311 281 295 80 15 84 59 57 92 73 44 359 351 345 302 8 348 345 356 353 329 325 324 310 299 2 329 322 325 326 333 335 320 328
331 293 289 295 317 320 305 307 309 326 288 292 314 3 9 33 51 65 64 31 358 329 302 8 354 343 345 12 344 333 342 331 326 323 337 352 299 308 325 350 320 338 340 345
273 299 306 297 306 298 285 289 315 316 305 310 350 30 20 24 69 34 357 353 12 18 20 2 346 2 357 344 351 309 329 351 336 341 334 319 310 308 347 327 331 349 349 354
316 288 292 293 279 271 294 312 315 295 340 343 6 59 323 46 36 359 350 336 32 17 346 358 360 0 332 323 352 357 358 344 328 330 330 333 301 325 341 327 341 355 355 359
295 292 294 287 297 299 299 1 313 36 29 24 12 335 30 27 345 344 15 12 23 342 6 12 344 302 359 359 339 350 331 336 338 353 339 336 341 355 7 356 355 357 351 347
296 291 287 290 296 286 86 41 17 10 32 41 259 351 21 360 351 54 37 3 7 17 6 321 355 6 348 340 338 338 351 340 328 337 348 350 355 15 22 359 357 353 359 13
284 293 307 288 311 79 82 53 30 19 93 250 8 353 6 1 302 84 24 30 26 354 1 7 8 318 332 340 341 5 342 344 353 347 347 7 9 10 0 357 2 12 2 17
244 231 277 307 285 340 60 95 322 304 96 347 360 7 3 333 334 41 23 41 1 9 19 342 324 331 354 343 344 346 358 344 3 359 12 18 12 13 0 1 17 8 356 354
355 306 295 290 272 83 40 13 309 351 37 27 8 18 9 5 20 17 20 23 26 28 332 346 327 21 22 6 345 359 6 1 359 359 25 21 15 4 29 10 21 3 12 5
330 315 322 342 320 355 342 339 4 57 84 14 30 18 14 29 40 41 39 33 17 11 6 336 11 11 7 21 3 359 2 357 7 11 10 22 36 16 7 19 15 12 14 22
333 21 331 18 22 71 47 69 69 42 46 40 28 27 33 55 71 45 43 32 22 10 2 19 17 28 11 2 12 9 15 2 4 19 41 33 24 21 27 19 14 19 15 19
65 39 283 260 102 109 98 86 76 67 66 47 52 50 59 81 70 50 34 39 7 27 30 26 11 25 21 19 27 29 9 19 28 31 28 27 33 15 16 29 39 44 26 12
100 231 311 73 54 113 126 95 98 89 74 71 54 60 90 74 68 38 50 14 38 56 43 47 38 23 17 13 12 17 7 11 13 24 33 33 32 30 44 46 29 42 44 27
25 26 29 19 23 18 125 113 123 88 63 59 96 103 84 73 53 43 46 39 21 65 46 47 40 26 10 7 7 4 357 357 20 35 34 24 35 37 35 74 68 37 28 42